2018-111Y (43898 NORAD) Tracking and Keplerian Element Data

This shows tracking and keplerian element data for the satellite.

Feedback or suggestion? Click here.




ElementValue
Catalog43898
Name2018-111Y
Epoch Orbit392
Epoch Day21.82840666
Epoch Year2019
RAAN291.0291
Inclination97.2997
Eccentricity0.0023658
Argument of Perigee154.7004
Mean Anonmoly205.5398
Mean Motion15.23546043
Decay Rate4.77E-06
L11 43898U 18111Y 19021.82840666 .00000477 00000-0 22726-4 0 9998
L22 43898 97.2997 291.0291 0023658 154.7004 205.5398 15.23546043 3925

Live tracking and technical data element details for 2018-111Y (NORAD 43898). 2018-111Y can be tracked NOW for your location showing map with azimuth and elevation plus other details from your city location.

Track the satellite on the map from your city or location and see movement details for azimuth, elevation, latitude, longitude, range, height, and movement on the map or in text.







IsCatalogInMostPopularTable: catalog: 43898, numindb: 26
Update: records affected: 1



GetName: 43898 2018-111Y

Hit Count: updated at: Wed, 23 Jan 2019 03:22:16 GMT